When you browse on this site, cookies collect data to enhance your experience and personalize the content and advertising you see.
Visit our Privacy Policy to learn more. By continuing to use the site, you agree to this use of cookies and data.
  • In Hungary
  • List of Countries
  • For 7 days
  • Water Temperature
  • Weather Map
  • News
  • Weather Widgets
  • user-avatar
    Login

    Hourly Weather Ziemiecice

    Today, 23 September, Monday

    Time Temperature Precipitation Wind Pressure Humidity
    00:00 +14°C° 0 mm 1 mps 740 mmHg 65%
    01:00 +14°C° 0 mm 2 mps 740 mmHg 70%
    02:00 +13°C° 0 mm 2 mps 739 mmHg 72%
    03:00 +13°C° 0 mm 2 mps 739 mmHg 74%
    04:00 +13°C° 0 mm 2 mps 739 mmHg 76%
    05:00 +13°C° 0 mm 2 mps 739 mmHg 74%
    06:00 +14°C° 0 mm 2 mps 739 mmHg 72%
    07:00 +14°C° 0 mm 2 mps 739 mmHg 70%
    08:00 +16°C° 0 mm 2 mps 739 mmHg 64%
    09:00 +18°C° 0 mm 2 mps 739 mmHg 58%
    10:00 +19°C° 0 mm 2 mps 739 mmHg 51%
    11:00 +20°C° 0 mm 2 mps 739 mmHg 49%
    12:00 +21°C° 0 mm 2 mps 739 mmHg 46%
    13:00 +23°C° 0 mm 2 mps 739 mmHg 44%
    14:00 +23°C° 0 mm 2 mps 739 mmHg 45%
    15:00 +23°C° 0 mm 2 mps 739 mmHg 47%
    16:00 +21°C° 0 mm 2 mps 739 mmHg 48%
    17:00 +20°C° 0 mm 2 mps 739 mmHg 53%
    18:00 +18°C° 0 mm 2 mps 739 mmHg 58%
    19:00 +16°C° 0 mm 2 mps 739 mmHg 64%
    20:00 +16°C° 0 mm 2 mps 739 mmHg 65%
    21:00 +15°C° 0 mm 2 mps 740 mmHg 67%
    22:00 +15°C° 0 mm 2 mps 740 mmHg 69%
    23:00 +14°C° 0 mm 2 mps 740 mmHg 72%

    Tomorrow, 24 September, Tuesday

    Time Temperature Precipitation Wind Pressure Humidity
    00:00 +14°C° 0 mm 2 mps 740 mmHg 75%
    01:00 +13°C° 0 mm 2 mps 740 mmHg 79%
    02:00 +13°C° 0 mm 2 mps 740 mmHg 81%
    03:00 +12°C° 0 mm 2 mps 740 mmHg 84%
    04:00 +12°C° 0 mm 2 mps 739 mmHg 87%
    05:00 +12°C° 0 mm 2 mps 739 mmHg 85%
    06:00 +13°C° 0 mm 2 mps 739 mmHg 83%
    07:00 +13°C° 0 mm 2 mps 740 mmHg 82%
    08:00 +15°C° 0 mm 2 mps 740 mmHg 73%
    09:00 +17°C° 0 mm 2 mps 740 mmHg 65%
    10:00 +19°C° 0 mm 2 mps 740 mmHg 57%
    11:00 +20°C° 0 mm 2 mps 739 mmHg 51%
    12:00 +21°C° 0 mm 2 mps 739 mmHg 46%
    13:00 +23°C° 0 mm 2 mps 739 mmHg 40%
    14:00 +23°C° 0 mm 2 mps 739 mmHg 42%
    15:00 +22°C° 0 mm 3 mps 738 mmHg 44%
    16:00 +21°C° 0 mm 3 mps 738 mmHg 46%
    17:00 +20°C° 0 mm 3 mps 738 mmHg 52%
    18:00 +18°C° 0 mm 3 mps 738 mmHg 57%
    19:00 +16°C° 0 mm 3 mps 738 mmHg 63%
    20:00 +16°C° 0 mm 3 mps 737 mmHg 65%
    21:00 +16°C° 0 mm 2 mps 737 mmHg 67%
    22:00 +15°C° 0 mm 2 mps 737 mmHg 69%
    23:00 +15°C° 0 mm 2 mps 737 mmHg 71%

    Day after tomorrow, 25 September, Wednesday

    Time Temperature Precipitation Wind Pressure Humidity
    00:00 +15°C° 0 mm 2 mps 737 mmHg 73%
    01:00 +14°C° 0 mm 2 mps 737 mmHg 76%
    02:00 +15°C° 0 mm 2 mps 736 mmHg 75%
    03:00 +15°C° 0 mm 2 mps 736 mmHg 75%
    04:00 +15°C° 0 mm 2 mps 736 mmHg 75%
    05:00 +15°C° 0.1 mm 2 mps 736 mmHg 76%
    06:00 +15°C° 0.1 mm 2 mps 736 mmHg 77%
    07:00 +15°C° 0.1 mm 2 mps 736 mmHg 79%
    08:00 +16°C° 0.3 mm 2 mps 736 mmHg 77%
    09:00 +17°C° 0.3 mm 3 mps 736 mmHg 75%
    10:00 +18°C° 0.3 mm 3 mps 736 mmHg 73%
    11:00 +18°C° 0.4 mm 3 mps 736 mmHg 72%
    12:00 +18°C° 0.4 mm 3 mps 736 mmHg 71%
    13:00 +18°C° 0.4 mm 3 mps 735 mmHg 70%
    14:00 +18°C° 0.3 mm 3 mps 735 mmHg 71%
    15:00 +18°C° 0.3 mm 3 mps 735 mmHg 72%
    16:00 +18°C° 0.3 mm 4 mps 735 mmHg 73%
    17:00 +17°C° 0.2 mm 3 mps 735 mmHg 76%
    18:00 +16°C° 0.2 mm 3 mps 736 mmHg 79%
    19:00 +16°C° 0.2 mm 2 mps 736 mmHg 82%
    20:00 +16°C° 0.1 mm 2 mps 736 mmHg 82%
    21:00 +14°C° 0.1 mm 3 mps 736 mmHg 81%
    22:00 +14°C° 0.1 mm 3 mps 736 mmHg 80%
    23:00 +14°C° 0 mm 3 mps 736 mmHg 81%

    26 September, Thursday

    Time Temperature Precipitation Wind Pressure Humidity
    00:00 +14°C° 0 mm 3 mps 736 mmHg 81%
    01:00 +13°C° 0 mm 3 mps 736 mmHg 82%
    02:00 +13°C° 0 mm 3 mps 737 mmHg 83%
    03:00 +12°C° 0 mm 3 mps 737 mmHg 85%
    04:00 +12°C° 0 mm 2 mps 737 mmHg 86%
    05:00 +13°C° 0 mm 2 mps 737 mmHg 85%
    06:00 +13°C° 0 mm 2 mps 738 mmHg 84%
    07:00 +13°C° 0 mm 2 mps 738 mmHg 82%
    08:00 +14°C° 0 mm 2 mps 738 mmHg 77%
    09:00 +15°C° 0 mm 2 mps 739 mmHg 71%
    10:00 +17°C° 0 mm 2 mps 739 mmHg 66%
    11:00 +17°C° 0.2 mm 2 mps 739 mmHg 62%
    12:00 +18°C° 0.2 mm 2 mps 739 mmHg 58%
    13:00 +19°C° 0.2 mm 2 mps 739 mmHg 55%
    14:00 +19°C° 0.1 mm 2 mps 739 mmHg 56%
    15:00 +19°C° 0.1 mm 2 mps 739 mmHg 57%
    16:00 +19°C° 0.1 mm 2 mps 739 mmHg 58%
    17:00 +17°C° 0 mm 2 mps 739 mmHg 64%
    18:00 +16°C° 0 mm 1 mps 740 mmHg 70%
    19:00 +15°C° 0 mm 1 mps 740 mmHg 76%
    20:00 +14°C° 0 mm 1 mps 740 mmHg 79%
    21:00 +13°C° 0 mm 0 mps 741 mmHg 81%
    22:00 +12°C° 0 mm 0 mps 741 mmHg 83%
    23:00 +13°C° 0 mm 1 mps 741 mmHg 84%

    27 September, Friday

    Time Temperature Precipitation Wind Pressure Humidity
    00:00 +13°C° 0 mm 1 mps 741 mmHg 86%
    01:00 +13°C° 0 mm 1 mps 741 mmHg 87%
    02:00 +12°C° 0 mm 1 mps 741 mmHg 88%
    03:00 +12°C° 0 mm 1 mps 741 mmHg 89%
    04:00 +12°C° 0 mm 1 mps 741 mmHg 90%
    05:00 +12°C° 0 mm 1 mps 741 mmHg 88%
    06:00 +13°C° 0 mm 2 mps 741 mmHg 87%
    07:00 +13°C° 0 mm 2 mps 741 mmHg 85%
    08:00 +15°C° 0 mm 2 mps 741 mmHg 78%
    09:00 +16°C° 0 mm 2 mps 741 mmHg 72%
    10:00 +18°C° 0 mm 3 mps 742 mmHg 65%
    11:00 +19°C° 0 mm 3 mps 741 mmHg 61%
    12:00 +20°C° 0 mm 3 mps 741 mmHg 57%
    13:00 +21°C° 0 mm 2 mps 741 mmHg 53%
    14:00 +21°C° 0.1 mm 3 mps 741 mmHg 57%
    15:00 +20°C° 0.1 mm 3 mps 740 mmHg 62%
    16:00 +20°C° 0.1 mm 3 mps 740 mmHg 66%
    17:00 +19°C° 0.1 mm 3 mps 740 mmHg 72%
    18:00 +18°C° 0.1 mm 2 mps 740 mmHg 77%
    19:00 +17°C° 0.1 mm 2 mps 740 mmHg 82%
    20:00 +17°C° 0.1 mm 2 mps 740 mmHg 83%
    21:00 +17°C° 0.1 mm 2 mps 740 mmHg 83%
    22:00 +17°C° 0.1 mm 3 mps 740 mmHg 84%
    23:00 +16°C° 0 mm 3 mps 740 mmHg 84%

    28 September, Saturday

    Time Temperature Precipitation Wind Pressure Humidity
    00:00 +16°C° 0 mm 3 mps 740 mmHg 84%
    01:00 +16°C° 0 mm 3 mps 740 mmHg 84%
    02:00 +16°C° 0.1 mm 3 mps 739 mmHg 83%
    03:00 +14°C° 0.1 mm 3 mps 739 mmHg 82%
    04:00 +14°C° 0.1 mm 4 mps 739 mmHg 82%
    05:00 +14°C° 0 mm 4 mps 739 mmHg 81%
    06:00 +15°C° 0 mm 4 mps 739 mmHg 80%
    07:00 +15°C° 0 mm 5 mps 739 mmHg 79%
    08:00 +16°C° 0.1 mm 5 mps 739 mmHg 75%
    09:00 +17°C° 0.1 mm 5 mps 740 mmHg 71%
    10:00 +19°C° 0.1 mm 5 mps 740 mmHg 68%
    11:00 +19°C° 0.3 mm 5 mps 740 mmHg 65%
    12:00 +19°C° 0.3 mm 5 mps 740 mmHg 62%
    13:00 +20°C° 0.3 mm 6 mps 739 mmHg 60%
    14:00 +19°C° 0.2 mm 6 mps 739 mmHg 63%
    15:00 +19°C° 0.2 mm 6 mps 739 mmHg 67%
    16:00 +17°C° 0.2 mm 6 mps 739 mmHg 70%
    17:00 +16°C° 0.2 mm 6 mps 739 mmHg 74%
    18:00 +15°C° 0.2 mm 6 mps 739 mmHg 77%
    19:00 +14°C° 0.2 mm 5 mps 739 mmHg 81%
    20:00 +14°C° 0.1 mm 5 mps 739 mmHg 79%
    21:00 +14°C° 0.1 mm 5 mps 740 mmHg 77%
    22:00 +13°C° 0.1 mm 4 mps 740 mmHg 75%
    23:00 +12°C° 0 mm 4 mps 740 mmHg 74%
    Show more